This is the latest recevied weather packets stored in our database for station/object PY2UTU-WX. If no packets are shown the sender has not sent any weather packets the latest 10 day(s).
| Time | Temp. | Humidity | Pressure | Rain* | Wind** | Luminosity | Snow |
|---|---|---|---|---|---|---|---|
| 1777785143 | 19.44° C | 98% | 925.5 hPa | - | - | - | - |
| 1777784243 | 19.44° C | 98% | 925.9 hPa | - | - | - | - |
| 1777783343 | 19.44° C | 98% | 925.5 hPa | - | - | - | - |
| 1777782443 | 20.56° C | 98% | 925.8 hPa | - | - | - | - |
| 1777781543 | 21.67° C | 98% | 926 hPa | - | - | - | - |
| 1777780643 | 21.11° C | 98% | 925.4 hPa | - | - | - | - |
| 1777779743 | 21.67° C | 98% | 925.7 hPa | - | - | - | - |
| 1777778844 | 21.67° C | 98% | 925.8 hPa | - | - | - | - |
| 1777777944 | 23.33° C | 98% | 925.4 hPa | - | - | - | - |
| 1777777043 | 23.33° C | 98% | 925.2 hPa | - | - | - | - |
| 1777776143 | 23.89° C | 98% | 925.5 hPa | - | - | - | - |
| 1777775243 | 22.78° C | 98% | 925.9 hPa | - | - | - | - |
| 1777774343 | 23.33° C | 98% | 926 hPa | - | - | - | - |
| 1777773443 | 22.78° C | 98% | 926.2 hPa | - | - | - | - |
| 1777772543 | 23.33° C | 97% | 926.1 hPa | - | - | - | - |
| 1777771643 | 22.78° C | 98% | 926.6 hPa | - | - | - | - |
| 1777770743 | 22.78° C | 98% | 926.3 hPa | - | - | - | - |
| 1777769843 | 23.33° C | 98% | 926.3 hPa | - | - | - | - |
| 1777768943 | 22.78° C | 98% | 926.2 hPa | - | - | - | - |
| 1777768043 | 22.78° C | 98% | 926.5 hPa | - | - | - | - |
| 1777767143 | 24.44° C | 98% | 926.3 hPa | - | - | - | - |
| 1777766243 | 23.89° C | 98% | 926.1 hPa | - | - | - | - |
| 1777765343 | 23.89° C | 98% | 926.1 hPa | - | - | - | - |
| 1777764443 | 23.89° C | 98% | 926.3 hPa | - | - | - | - |
| 1777763543 | 23.33° C | 98% | 926.2 hPa | - | - | - | - |
* Rain since midnight (hover to see other rain measurements)
** Current wind speed in m/s (hover to see current wind gust speed)